Regional Weather Roundup
Issued by NWS

Home | Current Version | Previous Version | Text Only | Print | Product List | Glossary Off
Versions: 1 2 3 4 5 6 7 8 9 10 11 12 13 14 15 16 17 18 19 20 21 22 23 24 25 26 27 28 29 30 31 32 33 34 35 36 37 38 39 40 41 42 43 44 45 46 47 48 49 50

000
ASUS45 KBOI 242210
RWRID
WEATHER ROUNDUP FOR IDAHO
NATIONAL WEATHER SERVICE BOISE ID
400 PM MDT FRI APR 24 2015

NOTE: "FAIR" INDICATES FEW OR NO CLOUDS BELOW 12000 FEET
WITH NO SIGNIFICANT WEATHER AND/OR OBSTRUCTIONS TO VISIBILITY

IDZ012-014-242300-
SOUTHWEST IDAHO


CITY           SKY/WX    TMP DP  RH WIND       PRES   REMARKS
BOISE          CLOUDY    57  36  45 N12       29.74F
CALDWELL       CLOUDY    57  36  44 N5        29.76F
MOUNTAIN HOME  CLOUDY    56  34  42 NW12G22   29.73F
$$

IDZ016-017-242300-
SOUTHCENTRAL IDAHO


CITY           SKY/WX    TMP DP  RH WIND       PRES   REMARKS
BURLEY         CLOUDY    47  39  74 W10G17    29.72S
JEROME         CLOUDY    50  39  66 SW20      29.73F
TWIN FALLS     CLOUDY    51  41  68 SW17      29.74F
$$

IDZ019>023-242300-
SOUTHEAST IDAHO


CITY           SKY/WX    TMP DP  RH WIND       PRES   REMARKS
IDAHO FALLS    CLOUDY    59  38  45 SW20G29   29.65R
POCATELLO      PTSUNNY   52  38  58 W22       29.71S
REXBURG        CLOUDY    57  37  47 SW16G25   29.62S
$$

IDZ006-010-011-018-031-032-242300-
CENTRAL IDAHO MOUNTAINS


CITY           SKY/WX    TMP DP  RH WIND       PRES   REMARKS
MCCALL         CLOUDY    46  36  68 N7        29.73F
HAILEY         CLOUDY    45  41  87 SE9       29.71S
STANLEY          N/A     43  32  65 NE12      29.70F
SALMON         CLOUDY    45  39  81 SW7       29.69S
CHALLIS        LGT RAIN  45  38  76 N16       29.67R
$$

IDZ002-004-006-007-026-242300-
NORTHERN IDAHO


CITY           SKY/WX    TMP DP  RH WIND       PRES   REMARKS
LEWISTON       CLOUDY    59  28  30 VRB3      29.79F
LOWELL           N/A     52  39  61 N5        29.83S
COEUR D`ALENE  CLOUDY    52  25  35 SW9G17    29.79S
MULLAN PASS    CLOUDY    35  19  52 W8        29.74S WCI  29
$$



USA.gov is the U.S. government's official web portal to all federal, state and local government web resources and services.